Location: Unspecified
(51.2667°N, 0.0000°E)
Time: 23:05:47
(UTC+00:00)

nSIGHT-1 - Pass Details

Date: 26 September 2019
Orbit: 337 x 343 km, 51.6° (Epoch: 17 October)

Event Time Altitude Azimuth Distance (km) Brightness Sun altitude
Rises 18:50:47 0° 281° (WNW) 2,155 ? -10.3°
Reaches altitude 10° 18:53:09 10° 263° (W) 1,307 ? -10.7°
Maximum altitude 18:55:19 19° 215° (SW) 903 ? -11.0°
Drops below altitude 10° 18:57:28 10° 166° (SSE) 1,294 ? -11.3°
Enters shadow 18:58:07 - 159° (SSE) 1,506 ? -11.4°
